Flag for Germany Weather past 2 weeks in Schleswig, Schleswig-Holstein, Germany

Now
64 °F

Overcast.


Feels Like: 64 °F
Forecast: 57 / 70 °F
Wind: 7 mph from East

Location: Schleswig

Current Time: Sep 16, 2014 at 8:27:57 PM

Latest Report: Sep 16, 2014 at 8:00 PM


Visibility: 16 mi

Pressure: 30.10 "Hg

Humidity: 78%

Dew point: 56 °F

Location of SchleswigLocation

Historic Weather in Schleswig — Graph

°F

Schleswig temperature yesterday

Maximum temperature yesterday: 68 °F (at 4:00 PM)
Minimum temperature yesterday: 60 °F (at 1:00 AM)
Average temperature yesterday: 63 °F

Past Weeks' High & Low Weather Summary

 TemperatureHumidityPressure
High75 °F (Sep 6, 2:00 PM)100% (Sep 3, 4:00 AM)30.37 "Hg (Sep 3, 4:00 AM)
Low51 °F (Sep 3, 7:00 AM)57% (Sep 4, 4:00 PM)29.88 "Hg (Sep 6, 4:00 PM)
Average61 °F84%30.12 "Hg
* Reported Sep 1 7:00 PM — Sep 16 7:00 PM, Schleswig, Weather by CustomWeather, © 2014

Note: Actual official high and low records may vary slightly from our data, if they occured in-between our weather recording intervals... More about our weather records

Advertising

Schleswig weather history for previous 24 hours

 ConditionsComfort  
Time TempWeatherWind HumidityBarometerVisibility
7:00 PM
Sep 16
65 °FScattered clouds.7 mph75%30.09 "Hg16 mi
6:00 PM67 °FScattered clouds.8 mph72%30.09 "Hg16 mi
5:00 PM67 °FPassing clouds.8 mph72%30.10 "Hg12 mi
4:00 PM68 °FPassing clouds.9 mph71%30.10 "Hg12 mi
3:00 PM68 °FPassing clouds.8 mph70%30.11 "Hg12 mi
2:00 PM68 °FSunny.8 mph72%30.12 "Hg12 mi
1:00 PM68 °FPassing clouds.7 mph73%30.13 "Hg12 mi
12:00 PM67 °FPassing clouds.7 mph75%30.14 "Hg9 mi
11:00 AM66 °FScattered clouds.6 mph79%30.15 "Hg9 mi
10:00 AM64 °FScattered clouds.6 mph82%30.15 "Hg9 mi
9:00 AM63 °FPartly sunny.5 mph88%30.14 "Hg7 mi
8:00 AM61 °FLow clouds.5 mph95%30.14 "Hg6 mi
7:00 AM61 °FLow clouds.5 mph95%30.13 "Hg6 mi
6:00 AM61 °FLow clouds.5 mph95%30.13 "Hg7 mi
4:00 AM62 °FLow clouds.6 mph93%30.14 "Hg9 mi
3:00 AM62 °FLow clouds.6 mph93%30.14 "Hg7 mi
2:00 AM62 °FLow clouds.6 mph92%30.15 "Hg9 mi
1:00 AM62 °FLow clouds.7 mph91%30.15 "Hg9 mi
12:00 AM62 °FLow clouds.7 mph92%30.16 "Hg9 mi
11:00 PM
Sep 15
62 °FLow clouds.7 mph92%30.16 "Hg6 mi
10:00 PM62 °FLow clouds.8 mph91%30.15 "Hg7 mi
9:00 PM63 °FLow clouds.8 mph90%30.15 "Hg7 mi
8:00 PM63 °FOvercast.9 mph88%30.14 "Hg9 mi
Weather by CustomWeather, © 2014

See weather overviewHow to use our weather pages